Regional Weather Roundup
Issued by NWS

Home | Current Version | Previous Version | Graphics & Text | Print | Product List | Glossary On
Versions: 1 2 3 4 5 6 7 8 9 10 11 12 13 14 15 16 17 18 19 20 21 22 23 24 25 26 27 28 29 30 31 32 33 34 35 36 37 38 39 40 41 42 43 44 45 46 47 48 49 50
523
ASUS44 KJAN 242103
RWRMS

MISSISSIPPI HOURLY WEATHER ROUNDUP
NATIONAL WEATHER SERVICE JACKSON MS
400 PM CDT FRI OCT 24 2014

NOTE: "FAIR: INDICATES FEW OR NO CLOUDS BELOW 12,000 FEET WITH NO
SIGNIFICANT WEATHER AND/OR OBSTRUCTIONS TO VISIBILITY.

MSZ001>002-007>008-010>013-018>021-025>028-034>036-242200-
NORTHWEST MISSISSIPPI

CITY           SKY/WX    TMP DP  RH WIND       PRES   REMARKS
CLARKSDALE     FAIR      73  54  49 NW6       30.10S
CLEVELAND      FAIR      73  52  46 CALM      30.09S
GREENWOOD      SUNNY     73  46  38 N7        30.09F
GREENVILLE     SUNNY     75  49  39 N8        30.09F
GRENADA          N/A    N/A N/A N/A MISG        N/A
OLIVE BRANCH   MOSUNNY   72  54  53 NW6       30.08F
OXFORD         FAIR      70  50  49 NW3       30.10F
TUNICA         CLEAR     73  54  49 N3        30.08F
$$

MSZ003>006-009-014>017-022>024-029>033-037>039-242200-
NORTHEAST MISSISSIPPI

CITY           SKY/WX    TMP DP  RH WIND       PRES   REMARKS
COLUMBUS AFB   SUNNY     72  43  34 NW9       30.07S
CORINTH        FAIR      73  50  43 NW6       30.07S
GOLDN TRIANGLE SUNNY     75  43  31 N9        30.07R
STARKVILLE     FAIR      72  43  35 N6        30.08R
TUPELO         SUNNY     72  40  31 NE7       30.07F
$$

MSZ040-058-242200-
CENTRAL MISSISSIPPI

CITY           SKY/WX    TMP DP  RH WIND       PRES   REMARKS
JACKSON INTL   SUNNY     75  42  30 NW7       30.08S
JACKSON HAWKNS SUNNY     75  43  31 N6        30.09R
MERIDIAN KEY   SUNNY     76  40  27 N12       30.05F
MERIDIAN NAS   SUNNY     76  40  27 N9        30.06S
RAYMOND        FAIR      73  68  83 NW3       30.09S
VICKSBURG      SUNNY     74  43  32 N6        30.10S
$$

MSZ059>079-242200-
SOUTH MISSISSIPPI

CITY           SKY/WX    TMP DP  RH WIND       PRES   REMARKS
BROOKHAVEN     FAIR      73  46  38 NW8       30.09R
COLUMBIA         N/A    N/A N/A N/A MISG        N/A
HATTIESBURG    SUNNY     76  46  34 N7        30.05S
MCCOMB         SUNNY     76  41  28 N9        30.06F
NATCHEZ        SUNNY     72  43  35 N8        30.11R
PINE BELT      SUNNY     75  45  33 N7        30.07S
$$

MSZ080>082-242200-
COASTAL MISSISSIPPI

CITY           SKY/WX    TMP DP  RH WIND       PRES   REMARKS
BAY ST LOUIS   SUNNY     79  36  21 N10       30.03S
BILOXI         SUNNY     77  42  28 NE9       30.01F
PASCAGOULA     SUNNY     78  42  27 NE7       30.01S
GULFPORT       SUNNY     78  43  28 N10       30.01F
$$



USA.gov is the U.S. government's official web portal to all federal, state and local government web resources and services.